TimeEDT,TemperatureF,Dew PointF,Humidity,Sea Level PressureIn,VisibilityMPH,Wind Direction,Wind SpeedMPH,Gust SpeedMPH,PrecipitationIn,Events,Conditions,WindDirDegrees,DateUTC
12:53 AM,68.0,61.0,78,29.99,10.0,SSW,5.8,-,N/A,,Clear,210,2014-08-15 04:53:00
1:53 AM,66.9,61.0,81,29.98,10.0,SW,3.5,-,N/A,,Clear,230,2014-08-15 05:53:00
2:53 AM,66.0,62.1,87,29.96,10.0,WSW,4.6,-,N/A,,Clear,250,2014-08-15 06:53:00
3:53 AM,68.0,61.0,78,29.96,10.0,Calm,Calm,-,N/A,,Clear,0,2014-08-15 07:53:00
4:53 AM,66.0,60.1,81,29.95,10.0,WSW,4.6,-,N/A,,Clear,240,2014-08-15 08:53:00
5:53 AM,64.0,60.1,87,29.97,10.0,South,3.5,-,N/A,,Clear,190,2014-08-15 09:53:00
6:53 AM,62.1,60.1,93,29.99,9.0,South,4.6,-,N/A,,Clear,190,2014-08-15 10:53:00
7:53 AM,68.0,61.0,78,30.01,10.0,Calm,Calm,-,N/A,,Clear,0,2014-08-15 11:53:00
8:53 AM,75.0,61.0,62,30.02,10.0,SW,5.8,-,N/A,,Clear,230,2014-08-15 12:53:00
10:53 AM,82.0,61.0,49,30.03,10.0,North,-9999.0,-,N/A,,Clear,0,2014-08-15 14:53:00
11:53 AM,84.9,62.1,46,30.01,10.0,North,-9999.0,-,N/A,,Clear,0,2014-08-15 15:53:00
12:53 PM,86.0,61.0,43,29.99,10.0,Calm,Calm,-,N/A,,Partly Cloudy,0,2014-08-15 16:53:00
1:53 PM,88.0,61.0,40,29.98,10.0,SW,8.1,-,N/A,,Mostly Cloudy,230,2014-08-15 17:53:00
2:53 PM,90.0,61.0,38,29.95,10.0,SW,10.4,-,N/A,,Partly Cloudy,220,2014-08-15 18:53:00
3:53 PM,88.0,60.1,39,29.93,10.0,SW,12.7,-,N/A,,Scattered Clouds,220,2014-08-15 19:53:00
4:53 PM,88.0,60.1,39,29.93,10.0,SSW,9.2,-,N/A,,Mostly Cloudy,210,2014-08-15 20:53:00
5:53 PM,88.0,61.0,40,29.93,10.0,SSW,8.1,-,N/A,,Clear,210,2014-08-15 21:53:00
6:53 PM,87.1,61.0,41,29.94,10.0,SSW,9.2,-,N/A,,Clear,210,2014-08-15 22:53:00
7:53 PM,82.9,63.0,51,29.94,10.0,SSW,4.6,-,N/A,,Clear,210,2014-08-15 23:53:00
8:53 PM,80.1,64.0,58,29.95,10.0,South,6.9,-,N/A,,Clear,190,2014-08-16 00:53:00
9:53 PM,78.1,64.9,64,29.96,10.0,South,8.1,-,N/A,,Clear,180,2014-08-16 01:53:00
10:53 PM,77.0,64.9,66,29.96,10.0,South,11.5,-,N/A,,Clear,190,2014-08-16 02:53:00
11:53 PM,75.0,66.0,73,29.97,10.0,South,6.9,-,N/A,,Clear,190,2014-08-16 03:53:00